Volver al catálogo

DELTA 1 DEB

ActivoPO
NORAD 21548·DEBRIS·🇺🇸 United States

Lanzado Jun 12, 1975 desde Vandenberg Space Force Base

Loading…

Próximos Pases (próximas 24 horas)

TLE

ActualizadoSource: Space-Track

Época: Sep 13, 2026, 03:56 UTC

1 21548U 75052HC  26256.16396037 -.00000228  00000-0 -58278-3 0  9992
2 21548  99.8045 327.4769 0246925 191.2238 196.8021 12.95783700670854

Sigue DELTA 1 DEB en tiempo real con AllMySat

Download on the App Store